| time (UTC) | temp F | wind direction | speed MPH | gust MPH | rain 1hr in | rain 24hr in | rain mn in | humidity % | barometer mb |
| 20260505005304 | 68 | 220 | 0.0 | 0.0 | 0.00 | 0.00 | 0.00 | 40 | 1001.6 |
| 20260505004302 | 68 | 220 | 0.0 | 0.0 | 0.00 | 0.00 | 0.00 | 40 | 1001.5 |
| 20260505003302 | 69 | 221 | 0.0 | 0.0 | 0.00 | 0.00 | 0.00 | 39 | 1001.5 |
| 20260505002749 | 70 | 221 | 0.0 | 0.0 | 0.00 | 0.00 | 0.00 | 37 | 1001.6 |
| 20260505001301 | 70 | 230 | 0.0 | 4.0 | 0.00 | 0.00 | 0.00 | 37 | 1001.8 |
| 20260505000301 | 71 | 234 | 0.0 | 0.0 | 0.00 | 0.00 | 0.00 | 36 | 1001.8 |
| 20260504235748 | 71 | 237 | 0.0 | 1.0 | 0.00 | 0.01 | 0.00 | 35 | 1001.6 |
| 20260504234746 | 71 | 235 | 0.0 | 0.0 | 0.00 | 0.01 | 0.00 | 36 | 1001.5 |
| 20260504233301 | 72 | 242 | 0.0 | 0.0 | 0.00 | 0.01 | 0.00 | 35 | 1001.6 |
| 20260504232303 | 72 | 242 | 0.0 | 0.0 | 0.00 | 0.01 | 0.00 | 34 | 1001.6 |
| 20260504231302 | 73 | 229 | 1.0 | 13.0 | 0.00 | 0.01 | 0.00 | 33 | 1001.6 |
| 20260504230739 | 73 | 198 | 1.0 | 9.0 | 0.00 | 0.01 | 0.00 | 33 | 1001.6 |
| 20260504225740 | 73 | 250 | 0.0 | 11.0 | 0.00 | 0.01 | 0.00 | 32 | 1001.5 |
| 20260504224301 | 74 | 240 | 1.0 | 10.0 | 0.00 | 0.01 | 0.00 | 32 | 1001.4 |
| 20260504223301 | 74 | 248 | 0.0 | 7.0 | 0.00 | 0.01 | 0.00 | 31 | 1001.4 |
| 20260504222301 | 75 | 237 | 1.0 | 11.0 | 0.00 | 0.01 | 0.00 | 32 | 1001.4 |
| 20260504221301 | 75 | 223 | 1.0 | 7.0 | 0.00 | 0.01 | 0.00 | 31 | 1001.3 |
| 20260504220735 | 75 | 229 | 0.0 | 7.0 | 0.00 | 0.01 | 0.00 | 31 | 1001.3 |
| 20260504215301 | 75 | 227 | 2.0 | 17.0 | 0.00 | 0.01 | 0.00 | 31 | 1001.4 |
| 20260504214301 | 75 | 235 | 3.0 | 17.0 | 0.00 | 0.01 | 0.00 | 33 | 1001.5 |
| 20260504213735 | 75 | 232 | 2.0 | 14.0 | 0.00 | 0.01 | 0.00 | 30 | 1001.5 |
| 20260504212303 | 75 | 233 | 4.0 | 18.0 | 0.00 | 0.01 | 0.00 | 32 | 1001.5 |
| 20260504211301 | 76 | 232 | 3.0 | 19.0 | 0.00 | 0.01 | 0.00 | 30 | 1001.6 |
| 20260504210301 | 75 | 212 | 5.0 | 18.0 | 0.00 | 0.01 | 0.00 | 31 | 1001.6 |
| 20260504205301 | 76 | 219 | 2.0 | 17.0 | 0.00 | 0.01 | 0.00 | 31 | 1001.8 |
| 20260504204302 | 76 | 213 | 2.0 | 21.0 | 0.00 | 0.01 | 0.00 | 31 | 1001.9 |
| 20260504203301 | 76 | 259 | 3.0 | 16.0 | 0.00 | 0.01 | 0.00 | 34 | 1002.0 |
| 20260504202301 | 75 | 199 | 4.0 | 21.0 | 0.00 | 0.01 | 0.00 | 34 | 1002.1 |
| 20260504201301 | 75 | 225 | 7.0 | 27.0 | 0.00 | 0.01 | 0.00 | 34 | 1002.1 |
| 20260504200654 | 75 | 229 | 3.0 | 17.0 | 0.00 | 0.01 | 0.00 | 35 | 1002.5 |
| 20260504200430 | 75 | 234 | 5.0 | 22.0 | 0.00 | 0.01 | 0.00 | 33 | 1002.3 |
| 20260504194301 | 74 | 227 | 3.0 | 19.0 | 0.00 | 0.01 | 0.00 | 34 | 1002.6 |
| 20260504193301 | 74 | 243 | 4.0 | 20.0 | 0.00 | 0.01 | 0.00 | 38 | 1002.8 |
| 20260504192742 | 74 | 257 | 3.0 | 16.0 | 0.00 | 0.01 | 0.00 | 36 | 1002.9 |
| 20260504191300 | 73 | 239 | 4.0 | 14.0 | 0.00 | 0.01 | 0.00 | 37 | 1003.0 |
| 20260504190300 | 72 | 250 | 7.0 | 23.0 | 0.00 | 0.01 | 0.00 | 36 | 1003.2 |
| 20260504185302 | 72 | 223 | 11.0 | 27.0 | 0.00 | 0.01 | 0.00 | 37 | 1003.3 |
| 20260504184741 | 72 | 230 | 6.0 | 21.0 | 0.00 | 0.01 | 0.00 | 38 | 1003.5 |
| 20260504183301 | 72 | 240 | 5.0 | 20.0 | 0.00 | 0.01 | 0.00 | 40 | 1003.5 |
| 20260504182301 | 71 | 226 | 8.0 | 27.0 | 0.00 | 0.01 | 0.00 | 40 | 1003.7 |
| 20260504181301 | 71 | 0 | 7.0 | 20.0 | 0.00 | 0.01 | 0.00 | 42 | 1003.8 |
| 20260504180301 | 72 | 226 | 4.0 | 15.0 | 0.00 | 0.01 | 0.00 | 42 | 1003.7 |
| 20260504175301 | 71 | 0 | 3.0 | 17.0 | 0.00 | 0.01 | 0.00 | 42 | 1003.9 |
| 20260504174301 | 71 | 0 | 3.0 | 15.0 | 0.00 | 0.01 | 0.00 | 43 | 1004.0 |
| 20260504173301 | 70 | 224 | 5.0 | 17.0 | 0.00 | 0.01 | 0.00 | 45 | 1004.0 |
| 20260504172301 | 70 | 254 | 3.0 | 20.0 | 0.00 | 0.01 | 0.00 | 43 | 1004.2 |
| 20260504171301 | 69 | 169 | 3.0 | 16.0 | 0.00 | 0.01 | 0.00 | 44 | 1004.1 |
| 20260504170301 | 69 | 244 | 4.0 | 16.0 | 0.00 | 0.01 | 0.00 | 44 | 1004.2 |
| 20260504160301 | 66 | 202 | 4.0 | 19.0 | 0.00 | 0.01 | 0.00 | 47 | 1004.7 |
| 20260504150301 | 64 | 0 | 3.0 | 22.0 | 0.00 | 0.01 | 0.00 | 47 | 1005.1 |
| 20260504140301 | 62 | 223 | 4.0 | 19.0 | 0.00 | 0.01 | 0.00 | 49 | 1005.0 |
| 20260504130300 | 58 | 209 | 0.0 | 5.0 | 0.00 | 0.01 | 0.00 | 54 | 1005.8 |
| 20260504110301 | 52 | 174 | 0.0 | 3.0 | 0.00 | 0.01 | 0.00 | 59 | 1005.8 |
| 20260504100302 | 53 | 195 | 0.0 | 5.0 | 0.00 | 0.01 | 0.00 | 54 | 1005.4 |
| 20260504081301 | 52 | 180 | 0.0 | 4.0 | 0.00 | 0.01 | 0.00 | 57 | 1006.3 |
| 20260504080301 | 52 | 202 | 1.0 | 9.0 | 0.00 | 0.01 | 0.00 | 57 | 1006.4 |
| 20260504050257 | 55 | 222 | 2.0 | 16.0 | 0.00 | 0.01 | 0.00 | 51 | 1007.6 |
| 20260504045259 | 55 | 0 | 1.0 | 15.0 | 0.00 | 0.01 | 0.00 | 52 | 1007.6 |
| 20260504044257 | 55 | 223 | 2.0 | 15.0 | 0.00 | 0.01 | 0.00 | 51 | 1007.7 |
| 20260504043731 | 55 | 217 | 3.0 | 15.0 | 0.00 | 0.01 | 0.00 | 51 | 1007.6 |
| 20260504042713 | 55 | 246 | 2.0 | 15.0 | 0.00 | 0.01 | 0.00 | 50 | 1007.7 |
| 20260504042443 | 55 | 221 | 2.0 | 16.0 | 0.00 | 0.01 | 0.00 | 51 | 1007.7 |
| 20260504035250 | 55 | 242 | 1.0 | 14.0 | 0.00 | 0.01 | 0.01 | 51 | 1007.5 |
| 20260504034250 | 55 | 227 | 1.0 | 14.0 | 0.00 | 0.01 | 0.01 | 51 | 1007.5 |
| 20260504033250 | 55 | 228 | 1.0 | 12.0 | 0.00 | 0.01 | 0.01 | 52 | 1007.6 |
| 20260504032249 | 55 | 225 | 0.0 | 7.0 | 0.00 | 0.01 | 0.01 | 53 | 1007.7 |
| 20260504031248 | 55 | 242 | 0.0 | 5.0 | 0.00 | 0.01 | 0.01 | 53 | 1007.7 |
| 20260504030248 | 55 | 198 | 1.0 | 10.0 | 0.00 | 0.01 | 0.01 | 53 | 1007.7 |
| 20260504025248 | 54 | 216 | 1.0 | 9.0 | 0.00 | 0.01 | 0.01 | 54 | 1007.8 |
| 20260504024248 | 55 | 220 | 1.0 | 9.0 | 0.00 | 0.01 | 0.01 | 55 | 1007.7 |
| 20260504023248 | 54 | 225 | 1.0 | 10.0 | 0.00 | 0.01 | 0.01 | 56 | 1007.8 |
| 20260504022248 | 54 | 222 | 0.0 | 6.0 | 0.00 | 0.01 | 0.01 | 56 | 1007.9 |
| 20260504021248 | 53 | 223 | 0.0 | 6.0 | 0.00 | 0.01 | 0.01 | 60 | 1008.0 |
| 20260504020248 | 52 | 205 | 0.0 | 0.0 | 0.00 | 0.01 | 0.01 | 67 | 1008.0 |
| 20260504015248 | 52 | 200 | 0.0 | 0.0 | 0.00 | 0.01 | 0.01 | 71 | 1008.1 |
| 20260504014247 | 51 | 199 | 0.0 | 0.0 | 0.00 | 0.01 | 0.01 | 74 | 1008.1 |
| 20260504013248 | 50 | 197 | 0.0 | 0.0 | 0.00 | 0.01 | 0.01 | 78 | 1008.1 |
| 20260504012247 | 50 | 195 | 0.0 | 0.0 | 0.00 | 0.01 | 0.01 | 82 | 1008.1 |
| 20260504011247 | 49 | 225 | 0.0 | 0.0 | 0.00 | 0.01 | 0.01 | 84 | 1008.2 |
| 20260504010246 | 49 | 238 | 0.0 | 0.0 | 0.00 | 0.01 | 0.01 | 85 | 1008.4 |
| 20260504005720 | 49 | 237 | 0.0 | 0.0 | 0.01 | 0.01 | 0.01 | 85 | 1008.6 |